Wind_Speed
26 27 29 30 31 34 36 39 41 41 41 45 48 51 51 53 54 54 55 55 55 54 53 52 50 50 49 47 46 45 43 42 40 39 38 36 35 34 33 32 32 30 29 28
25 26 28 28 29 31 33 36 39 41 41 43 47 50 51 53 54 53 55 56 56 56 55 53 52 51 50 49 47 46 45 43 41 40 39 38 37 35 35 34 33 31 30 29
24 25 27 28 29 31 31 34 37 40 40 42 46 49 50 52 53 53 55 56 56 57 56 55 53 52 51 49 47 46 45 44 42 41 40 39 38 36 35 34 33 32 31 30
23 24 26 27 27 30 31 31 34 37 40 42 45 49 49 50 53 53 54 55 56 57 57 56 54 52 51 50 48 47 46 45 44 42 41 39 37 36 34 34 34 33 32 31
23 24 26 26 26 28 29 30 32 35 38 41 44 48 49 50 51 52 53 54 56 56 57 56 55 53 51 51 49 48 47 46 45 44 42 40 39 37 36 36 35 34 33 32
23 24 26 26 27 27 28 29 31 33 36 40 39 45 47 48 48 49 51 52 55 56 58 57 55 55 53 52 51 49 48 47 46 45 43 41 39 39 38 37 36 35 34 33
23 23 24 26 27 27 28 29 30 32 35 37 37 42 45 44 46 47 49 52 54 56 58 58 57 56 54 53 52 51 49 48 47 46 44 42 40 40 39 38 37 36 35 34
24 22 23 24 26 28 28 28 29 31 33 33 35 39 42 42 43 45 48 51 53 55 58 58 58 56 55 54 53 52 50 48 48 47 45 43 42 41 40 39 38 37 36 35
24 23 23 24 26 28 29 29 29 31 34 35 35 36 38 41 42 44 47 49 51 53 56 58 58 57 56 55 54 52 51 49 48 48 47 45 44 43 41 40 39 38 37 36
23 24 23 24 26 27 30 30 31 32 33 35 37 35 35 38 42 44 45 48 50 51 54 57 58 58 56 56 55 53 51 50 49 49 48 47 45 44 43 42 41 39 38 37
24 24 23 24 25 27 29 31 32 34 35 35 37 35 33 35 39 43 44 46 49 51 53 55 56 57 57 56 56 55 52 51 50 50 49 48 47 45 45 44 42 41 39 39
25 26 24 24 25 27 30 32 33 35 36 37 38 35 34 34 37 41 44 46 48 50 52 54 56 55 55 56 56 56 54 52 51 50 50 49 48 47 46 45 43 42 41 40
27 27 26 24 25 27 30 31 33 35 37 38 39 36 33 34 37 39 43 46 48 50 51 53 55 56 55 56 57 57 55 53 52 51 50 50 49 48 46 46 45 44 42 42
28 28 28 27 26 29 30 31 33 35 38 39 38 36 34 34 36 39 42 45 47 49 51 52 53 55 56 55 57 58 57 55 54 53 51 50 50 49 48 47 47 46 45 44
29 30 29 28 28 30 31 32 34 36 37 39 37 37 35 34 34 36 40 43 45 47 49 51 53 54 55 55 56 58 57 56 55 54 53 51 50 50 49 48 48 47 46 45
29 30 30 30 29 32 32 31 33 35 36 37 37 37 36 36 36 37 39 42 44 46 48 49 51 53 55 54 55 57 57 57 56 54 53 52 51 51 50 49 49 48 47 46
29 29 30 31 30 32 31 29 32 34 35 35 36 36 37 38 38 38 39 42 44 47 49 50 51 52 54 55 55 56 57 57 56 54 53 53 52 51 51 50 49 48 47 46
29 29 30 31 31 31 27 28 30 32 33 35 36 37 37 37 38 38 39 41 43 46 49 51 51 52 53 53 55 55 56 56 55 54 53 52 52 52 51 50 49 48 47 46
29 29 30 30 30 30 26 28 30 32 33 34 35 35 37 37 38 38 39 41 43 45 48 51 51 52 53 53 53 54 55 56 56 55 53 53 52 52 52 51 50 49 48 47
29 30 30 30 31 29 26 28 31 33 34 34 35 36 36 38 39 38 39 40 42 44 47 50 52 52 52 53 53 53 53 55 55 55 54 54 53 52 52 51 50 49 48 47
30 31 31 30 31 29 26 28 31 33 32 33 34 36 37 38 39 39 41 41 42 44 47 50 51 52 51 51 52 54 54 54 55 55 55 54 53 52 52 51 50 50 49 48
29 31 31 32 31 28 28 30 31 31 33 34 34 35 36 37 38 40 41 42 42 43 45 48 51 52 52 51 51 52 54 54 54 55 54 53 53 53 53 52 50 50 50 48
29 30 32 32 30 29 29 31 32 33 33 33 34 35 36 36 36 38 40 41 42 44 44 47 49 51 51 52 52 52 52 53 54 54 54 52 51 52 52 51 50 49 49 49
30 31 32 32 30 29 30 31 32 34 34 34 34 34 36 37 36 36 38 40 42 44 45 46 48 50 50 50 51 51 51 51 52 53 54 53 52 51 51 50 50 48 48 47
30 30 31 31 29 31 31 32 32 33 34 34 34 33 35 36 36 36 37 40 40 43 45 46 47 47 48 49 50 50 50 49 50 51 52 53 53 52 51 50 49 48 48 47
29 30 30 29 28 30 29 31 32 33 32 33 34 35 35 36 36 36 38 40 41 42 44 45 47 47 47 48 49 49 48 48 48 48 49 50 51 51 50 50 49 48 47 47
Wind_Direction
272 266 260 256 253 248 246 245 243 239 236 236 231 228 223 221 220 219 219 218 216 216 215 215 216 216 217 217 217 218 218 218 219 219 219 221 222 224 225 227 229 232 235 239
271 266 261 256 251 246 246 245 241 238 235 236 233 228 223 220 219 219 218 218 217 215 215 215 215 215 217 218 217 218 218 219 219 219 220 221 223 224 226 228 230 233 236 240
272 268 261 256 252 246 246 243 240 238 236 234 235 229 223 220 220 219 218 218 217 216 215 215 215 215 216 217 218 219 219 219 219 219 221 222 223 225 227 229 231 234 237 241
275 270 261 256 253 247 246 242 239 238 238 235 234 233 222 220 221 219 218 218 217 216 215 215 216 215 215 216 218 220 220 219 219 220 221 223 224 226 227 230 232 235 238 242
278 271 263 257 253 250 248 243 240 240 239 237 234 236 224 221 220 220 220 219 218 217 216 216 216 216 216 217 218 219 220 220 220 221 221 222 224 225 227 230 233 236 239 242
279 272 263 257 253 250 248 245 243 242 240 238 234 236 228 222 221 221 221 220 218 217 216 216 216 216 217 217 218 219 220 221 221 221 221 222 224 226 229 231 234 237 241 244
278 272 264 258 252 246 244 245 246 244 242 240 235 237 230 223 221 220 221 220 219 219 217 217 217 218 218 218 218 220 221 221 222 222 222 222 225 227 229 231 234 237 241 244
283 272 263 259 253 247 242 243 246 247 246 242 237 237 230 225 221 221 221 221 220 220 219 219 218 218 219 219 219 220 221 222 222 223 222 223 225 228 230 232 235 238 241 244
288 274 263 257 253 249 245 244 246 247 246 245 241 236 230 227 223 221 221 221 221 221 220 219 219 219 219 220 220 222 222 224 224 224 224 225 226 228 231 233 236 239 241 244
291 279 266 259 253 250 248 247 247 245 247 248 243 238 232 228 227 224 222 222 222 221 221 220 220 219 220 220 220 222 223 224 224 225 225 226 228 229 231 234 237 239 242 244
288 283 273 262 254 249 246 246 247 246 247 248 246 239 234 233 230 227 225 224 223 223 222 221 221 220 220 220 221 221 222 224 225 226 226 227 229 230 232 235 237 240 242 245
287 282 277 266 258 251 248 247 247 247 247 247 247 240 237 236 234 231 228 225 224 224 224 224 223 222 222 221 221 222 223 224 225 227 227 228 229 231 233 235 237 240 242 245
287 282 278 271 263 254 250 246 246 248 249 246 245 239 237 239 235 232 230 227 226 225 225 224 224 225 224 224 223 223 223 224 226 227 229 230 231 232 234 236 237 239 242 245
285 281 277 273 268 259 253 248 246 249 249 247 244 240 236 239 237 234 231 229 228 227 226 225 225 225 225 225 224 224 224 225 226 228 230 231 232 233 234 236 238 240 242 244
283 281 277 273 268 263 257 250 246 248 250 249 244 241 237 237 235 233 232 230 228 227 225 225 225 225 224 225 226 225 225 226 227 228 230 232 233 234 235 236 238 240 242 244
284 281 277 274 271 265 260 253 249 248 249 250 248 244 240 238 237 235 233 231 227 225 225 225 226 225 225 225 226 227 226 227 227 228 230 232 233 234 235 236 238 240 242 244
287 282 279 277 272 267 262 255 250 249 249 248 247 245 244 242 240 237 234 232 228 227 225 224 225 226 226 225 226 226 227 227 228 228 229 231 232 234 235 236 238 239 241 243
287 284 282 279 274 268 266 258 252 250 247 247 247 246 244 242 240 237 234 232 230 228 225 225 225 225 225 226 226 226 227 227 228 229 229 230 232 233 235 236 238 239 240 243
285 284 283 281 276 270 263 258 253 249 247 247 248 247 245 242 239 237 234 231 229 226 224 224 224 225 225 225 226 226 226 226 227 229 230 230 232 234 234 236 237 239 241 243
283 283 283 281 277 272 265 259 254 250 249 247 249 248 246 242 239 237 233 230 229 225 223 223 224 224 225 226 226 227 227 226 226 227 229 230 232 233 235 235 236 239 241 243
282 282 282 281 278 273 266 259 255 253 251 248 248 247 246 244 240 237 234 231 229 226 223 222 223 224 225 226 226 227 227 227 227 227 228 230 231 233 234 236 237 238 240 242
283 282 282 279 275 274 264 260 258 256 252 250 250 248 247 245 242 238 235 232 230 227 225 223 223 224 224 225 226 226 227 227 227 228 228 230 231 232 233 235 237 239 240 241
282 282 282 280 277 272 265 262 258 256 254 252 251 248 246 244 244 242 238 233 231 229 227 224 223 224 224 224 225 226 226 227 228 229 229 229 231 234 234 235 237 239 241 243
282 281 280 278 275 269 264 261 258 257 256 254 252 249 247 246 245 244 240 234 231 229 228 226 224 224 226 225 225 226 227 228 228 229 229 230 231 234 235 236 237 239 241 244
284 281 279 278 274 266 262 259 257 258 257 256 254 250 248 246 244 244 240 236 233 229 227 226 225 224 225 225 226 227 228 229 229 229 230 231 233 235 236 236 238 239 241 243
281 279 277 278 275 269 263 258 256 257 258 258 255 251 248 246 244 243 239 236 233 230 227 226 225 225 226 227 228 227 228 229 230 231 231 232 234 235 236 237 238 238 240 242
Height
5568 5571 5571 5573 5575 5579 5581 5583 5587 5593 5598 5601 5607 5614 5623 5630 5637 5647 5656 5665 5675 5685 5694 5701 5709 5717 5724 5731 5738 5745 5751 5757 5762 5768 5774 5778 5783 5787 5791 5795 5798 5802 5805 5808
5563 5565 5566 5566 5568 5570 5572 5574 5578 5584 5589 5592 5597 5604 5613 5621 5629 5638 5646 5656 5666 5675 5684 5693 5701 5708 5716 5724 5731 5738 5744 5750 5756 5762 5767 5771 5775 5780 5784 5788 5792 5796 5799 5802
5557 5559 5559 5560 5561 5563 5565 5567 5571 5575 5580 5584 5588 5594 5604 5613 5620 5628 5637 5647 5656 5666 5676 5684 5692 5700 5708 5716 5724 5731 5737 5743 5749 5754 5759 5764 5769 5773 5778 5782 5786 5790 5793 5796
5552 5553 5553 5554 5556 5557 5559 5562 5564 5568 5571 5576 5581 5584 5596 5604 5611 5620 5630 5638 5647 5657 5667 5676 5684 5692 5700 5709 5716 5723 5729 5735 5741 5746 5752 5757 5763 5768 5773 5776 5779 5783 5786 5789
5548 5548 5548 5550 5552 5552 5554 5556 5559 5561 5564 5568 5574 5576 5588 5595 5604 5614 5623 5631 5640 5649 5658 5667 5676 5684 5692 5700 5707 5714 5721 5727 5733 5738 5744 5750 5756 5760 5764 5768 5772 5776 5779 5782
5544 5543 5544 5546 5547 5548 5549 5551 5553 5555 5558 5562 5569 5570 5579 5590 5600 5608 5616 5624 5631 5640 5649 5658 5667 5675 5683 5691 5698 5705 5712 5719 5725 5731 5737 5743 5748 5753 5757 5761 5765 5769 5772 5775
5541 5541 5540 5541 5542 5544 5545 5546 5548 5549 5551 5556 5563 5564 5574 5586 5593 5600 5608 5615 5623 5630 5639 5648 5657 5666 5674 5682 5689 5697 5704 5710 5716 5723 5729 5735 5740 5745 5750 5754 5758 5762 5765 5769
5536 5537 5537 5536 5537 5539 5541 5542 5544 5545 5547 5551 5555 5559 5570 5579 5585 5592 5599 5605 5613 5621 5629 5638 5647 5656 5665 5673 5680 5688 5695 5702 5708 5714 5721 5727 5732 5737 5742 5746 5750 5754 5758 5761
5530 5532 5533 5532 5533 5534 5535 5537 5540 5541 5542 5544 5548 5555 5563 5570 5577 5583 5590 5597 5604 5612 5619 5628 5637 5645 5654 5663 5671 5679 5686 5693 5700 5706 5713 5718 5724 5729 5734 5738 5742 5746 5750 5753
5526 5527 5528 5528 5529 5530 5531 5533 5535 5536 5537 5539 5544 5550 5557 5563 5569 5576 5582 5588 5595 5602 5609 5617 5626 5635 5644 5652 5661 5669 5677 5684 5691 5697 5703 5710 5715 5721 5725 5730 5734 5738 5741 5744
5522 5521 5523 5523 5523 5525 5527 5528 5529 5531 5532 5534 5538 5547 5552 5557 5562 5568 5574 5580 5586 5593 5600 5608 5616 5625 5634 5642 5651 5659 5667 5674 5681 5688 5694 5701 5706 5712 5716 5721 5726 5729 5733 5736
5517 5516 5516 5517 5518 5518 5520 5522 5523 5525 5528 5529 5532 5541 5545 5549 5553 5558 5564 5570 5577 5584 5591 5599 5607 5615 5623 5632 5641 5649 5657 5665 5672 5678 5685 5691 5697 5702 5707 5712 5716 5720 5724 5727
5512 5511 5510 5511 5514 5513 5513 5515 5516 5518 5520 5522 5524 5534 5538 5541 5545 5549 5555 5561 5568 5575 5582 5590 5597 5605 5613 5622 5630 5639 5647 5655 5662 5668 5675 5681 5687 5693 5698 5703 5707 5711 5714 5718
5506 5505 5506 5506 5506 5505 5506 5508 5509 5510 5512 5514 5519 5525 5531 5533 5537 5542 5546 5552 5558 5565 5573 5580 5587 5595 5604 5612 5620 5629 5637 5644 5651 5658 5665 5672 5678 5684 5689 5693 5697 5701 5705 5708
5500 5499 5498 5498 5498 5498 5498 5500 5502 5502 5504 5507 5512 5516 5522 5525 5529 5533 5537 5543 5549 5556 5563 5570 5577 5585 5593 5601 5609 5618 5626 5634 5641 5648 5655 5662 5668 5673 5678 5683 5687 5691 5695 5699
5493 5492 5491 5491 5491 5489 5490 5492 5493 5495 5497 5500 5503 5508 5514 5516 5520 5524 5529 5534 5540 5546 5553 5560 5568 5575 5583 5591 5599 5607 5615 5623 5631 5638 5645 5652 5657 5663 5668 5673 5677 5681 5685 5688
5487 5485 5483 5483 5483 5481 5482 5486 5486 5488 5490 5493 5495 5501 5504 5507 5511 5515 5520 5524 5530 5536 5544 5551 5558 5566 5573 5581 5588 5596 5604 5612 5619 5627 5634 5640 5646 5652 5658 5662 5667 5671 5675 5678
5481 5478 5475 5474 5475 5473 5479 5477 5478 5479 5482 5485 5488 5492 5495 5498 5502 5506 5511 5515 5521 5527 5534 5541 5548 5556 5563 5570 5578 5585 5593 5601 5608 5616 5623 5629 5635 5641 5647 5652 5656 5661 5665 5668
5474 5471 5469 5467 5465 5466 5470 5470 5470 5471 5474 5477 5479 5483 5485 5488 5492 5497 5501 5506 5511 5517 5523 5530 5538 5545 5552 5560 5567 5575 5582 5590 5597 5605 5612 5618 5624 5630 5636 5641 5646 5650 5654 5658
5467 5464 5463 5460 5458 5458 5464 5463 5462 5464 5466 5469 5470 5473 5476 5478 5483 5488 5491 5496 5501 5507 5513 5520 5528 5535 5542 5550 5557 5564 5571 5579 5586 5593 5601 5607 5613 5619 5625 5630 5635 5640 5644 5648
5459 5457 5455 5452 5450 5451 5455 5454 5454 5457 5459 5461 5462 5463 5466 5469 5473 5477 5480 5485 5491 5496 5503 5510 5517 5525 5532 5539 5546 5553 5561 5568 5575 5582 5589 5596 5602 5608 5614 5619 5624 5629 5634 5638
5451 5449 5447 5445 5443 5448 5447 5446 5446 5447 5449 5451 5452 5454 5456 5459 5462 5466 5470 5475 5480 5486 5492 5499 5507 5514 5521 5528 5536 5543 5550 5557 5564 5571 5578 5585 5591 5597 5603 5608 5613 5618 5623 5627
5443 5442 5439 5438 5439 5439 5438 5437 5437 5438 5440 5442 5443 5445 5447 5450 5453 5456 5460 5465 5470 5476 5483 5489 5496 5504 5510 5518 5525 5532 5539 5546 5553 5560 5567 5574 5580 5586 5592 5598 5603 5608 5613 5617
5436 5433 5430 5429 5430 5429 5428 5428 5428 5429 5431 5432 5434 5436 5438 5441 5444 5447 5451 5455 5460 5466 5472 5479 5486 5494 5500 5507 5514 5522 5528 5535 5542 5549 5556 5563 5570 5575 5581 5587 5593 5598 5602 5607
5427 5424 5421 5420 5421 5419 5419 5419 5420 5420 5421 5423 5425 5427 5429 5431 5435 5438 5441 5446 5451 5456 5462 5469 5476 5483 5490 5497 5504 5511 5518 5525 5532 5539 5546 5552 5559 5564 5570 5576 5582 5587 5592 5596
5419 5415 5413 5412 5412 5410 5411 5411 5411 5411 5412 5413 5415 5417 5420 5422 5425 5428 5432 5436 5441 5446 5452 5459 5466 5473 5480 5487 5494 5500 5507 5514 5521 5528 5535 5541 5548 5554 5559 5565 5571 5575 5581 5585